Location: Axtheid
(49.6213°N, 11.8205°E)
Time: 09:40:28
(UTC+00:00)

SKYMED 2 - Pass Details

Date: 18 February 2020
Orbit: 621 x 623 km, 97.9° (Epoch: 03 April)

Event Time Altitude Azimuth Distance (km) Brightness Sun altitude
Rises 05:06:21 0° 193° (SSW) 2,893 6.9 -12.3°
Reaches altitude 10° 05:08:46 10° 204° (SSW) 1,992 6.0 -11.9°
Maximum altitude 05:12:33 29° 265° (W) 1,150 4.4 -11.3°
Drops below altitude 10° 05:16:22 10° 326° (NW) 2,007 5.8 -10.6°
Sets 05:18:49 0° 338° (NNW) 2,919 6.7 -10.2°
